Location: Ladrillo (historical)
(32.8195°N, 117.2231°W)
Time: 18:12:01
(UTC+00:00)

NOAA 18 - Pass Details

Date: 20 April 2021
Orbit: 840 x 861 km, 99.0° (Epoch: 05 May)

Event Time Altitude Azimuth Distance (km) Brightness Sun altitude
Exits shadow 05:32:36 41° 314° (NW) 1,211 6.3 -35.1°
Drops below altitude 10° 05:36:18 10° 338° (NNW) 2,464 8.3 -35.6°
Sets 05:38:42 0° 342° (NNW) 3,400 9.2 -35.9°
